Location: Newark
(5.8900°S, 42.6378°W)
Time: 07:10:24
(UTC+00:00)

Vanguard 1 Rocket - Pass Details

Date: 27 October 2019
Orbit: 651 x 4225 km, 34.3° (Epoch: 13 November)

Event Time Altitude Azimuth Distance (km) Brightness Sun altitude
Rises 19:21:08 0° 311° (NW) 8,138 12.8 19.1°
Reaches altitude 10° 19:26:30 10° 312° (NW) 7,300 12.6 17.8°
Maximum altitude 19:53:15 81° 38° (NE) 3,846 10.7 11.3°
Drops below altitude 10° 20:11:34 10° 123° (ESE) 5,361 10.9 6.9°
Sets 20:14:47 0° 123° (ESE) 6,004 11.2 6.1°
